COSMOS 2513

Last updated on Wed May 14 2025 00:02:43 GMT+0000 (Coordinated Universal Time)

1 41121U 15075A 25133.46720670 -.00000122 00000+0 00000+0 0 9997 2 41121 0.0647 98.0963 0004182 333.0641 48.7725 1.00270986 34540
UTC large
Height (km)
Speed (km/s)
/
Latitude / Longitude
Inclination (degrees)
Orbital Period (minutes)
Azimuth
Elevation
Range (km)
Doppler Factor

Next 0 passes for location: London (51.5072 / 0.1276)

Sorry there are no passes over London.